This is the latest recevied weather packets stored in our database for station/object N4DLW-3. If no packets are shown the sender has not sent any weather packets the latest 10 day(s).
| Time | Temp. | Humidity | Pressure | Rain* | Wind** | Luminosity | Snow |
|---|---|---|---|---|---|---|---|
| 1777923872 | 30° C | 43% | 1013.8 hPa | 0 mm | - | - | - |
| 1777923587 | 30° C | 42% | 1013.7 hPa | 0 mm | - | - | - |
| 1777923273 | 30° C | 41% | 1013.9 hPa | 0 mm | - | - | - |
| 1777922988 | 30° C | 41% | 1014.1 hPa | 0 mm | - | - | - |
| 1777922674 | 30° C | 41% | 1014.1 hPa | 0 mm | - | - | - |
| 1777922382 | 30.56° C | 41% | 1014 hPa | 0 mm | - | - | - |
| 1777922079 | 30.56° C | 41% | 1014.1 hPa | 0 mm | - | - | - |
| 1777921765 | 30.56° C | 41% | 1014.2 hPa | 0 mm | - | - | - |
| 1777921479 | 30.56° C | 41% | 1014.2 hPa | 0 mm | - | - | - |
| 1777921167 | 30.56° C | 41% | 1014.3 hPa | 0 mm | - | - | - |
| 1777920874 | 30.56° C | 40% | 1014.3 hPa | 0 mm | - | - | - |
| 1777920567 | 30° C | 43% | 1014.3 hPa | 0 mm | - | - | - |
| 1777920273 | 30° C | 43% | 1014.5 hPa | 0 mm | - | - | - |
| 1777919985 | 30° C | 41% | 1014.7 hPa | 0 mm | - | - | - |
| 1777919673 | 30° C | 41% | 1014.7 hPa | 0 mm | - | - | - |
| 1777919386 | 30° C | 40% | 1014.9 hPa | 0 mm | - | - | - |
| 1777919072 | 30° C | 41% | 1015.1 hPa | 0 mm | - | - | - |
| 1777918780 | 30° C | 41% | 1015.1 hPa | 0 mm | - | - | - |
| 1777918477 | 30° C | 43% | 1015.2 hPa | 0 mm | - | - | - |
| 1777918164 | 29.44° C | 44% | 1015.4 hPa | 0 mm | - | - | - |
| 1777917874 | 29.44° C | 42% | 1015.4 hPa | 0 mm | - | - | - |
| 1777917564 | 29.44° C | 42% | 1015.4 hPa | 0 mm | - | - | - |
| 1777917272 | 29.44° C | 43% | 1015.3 hPa | 0 mm | - | - | - |
| 1777916966 | 30° C | 41% | 1015.5 hPa | 0 mm | - | - | - |
| 1777916673 | 30° C | 42% | 1015.4 hPa | 0 mm | - | - | - |
* Rain latest hour (hover to see other rain measurements)
** Current wind speed in m/s (hover to see current wind gust speed)